Location: Crescent
(42.8242°N, 73.7329°W)
Time: 06:12:40
(UTC+00:00)

Tiros 1 - Pass Details

Date: 18 February 2026
Orbit: 618 x 649 km, 48.4° (Epoch: 5 March)

Event Time Altitude Azimuth Distance (km) Brightness Sun altitude
Rises 11:31:27 0° 184° (S) 2,911 10.6 -3.7°
Reaches altitude 10° 11:35:10 10° 154° (SSE) 2,000 10.3 -3.1°
Maximum altitude 11:36:56 12° 131° (SE) 1,865 10.7 -2.8°
Drops below altitude 10° 11:38:41 10° 109° (ESE) 1,997 11.8 -2.4°
Sets 11:42:23 0° 78° (ENE) 2,902 11.9 -1.8°
